,,Stat6,,Stat2,,Stat8,,Stat9,,Stat10,,Wind1,,Wind1,
time,status,PA1M_AVG,status,PR1M_SUM,status,RH1M_AVG,status,SR1M_AVG,status,TA1M_AVG,status,W1dAve1m,status,W1sAve1m,
2006-04-11, 00:00:00,VALID,918.718,VALID,0,VALID,96.1384,VALID,-0.0849042,VALID,20.4959,VALID,15,VALID,0,
2006-04-11, 00:01:00,VALID,918.719,VALID,0,VALID,96.1664,VALID,-0.135847,VALID,20.1545,VALID,15,VALID,0.270139,
2006-04-11, 00:02:00,VALID,918.735,VALID,0,VALID,96.2198,VALID,-0.20377,VALID,20.5661,VALID,16,VALID,0.39226,
2006-04-11, 00:03:00,VALID,918.757,VALID,0,VALID,96.4741,VALID,-0.186789,VALID,20.7822,VALID,18,VALID,0.356488,
2006-04-11, 00:04:00,VALID,918.775,VALID,0,VALID,96.6432,VALID,-0.118866,VALID,20.6522,VALID,18,VALID,0.224144,
2006-04-11, 00:05:00,VALID,918.781,VALID,0,VALID,96.3609,VALID,-0.101885,VALID,20.8309,VALID,18,VALID,0.39234,
2006-04-11, 00:06:00,VALID,918.771,VALID,0,VALID,96.1397,VALID,-0.0849042,VALID,20.0343,VALID,35,VALID,0.675223,
2006-04-11, 00:07:00,VALID,918.77,VALID,0,VALID,96.2363,VALID,-0.0679233,VALID,20.6182,VALID,48,VALID,0.563033,
2006-04-11, 00:08:00,VALID,918.772,VALID,0,VALID,96.1486,VALID,-0.0679233,VALID,21.0654,VALID,53,VALID,0.441679,
2006-04-11, 00:09:00,VALID,918.762,VALID,0,VALID,96.3546,VALID,-0.0849042,VALID,21.3115,VALID,53,VALID,0.0411005,
2006-04-11, 00:10:00,VALID,918.756,VALID,0,VALID,96.6407,VALID,-0.101885,VALID,20.0448,VALID,53,VALID,0.00109012,
2006-04-11, 00:11:00,VALID,918.754,VALID,0,VALID,96.3584,VALID,-0.118866,VALID,21.5656,VALID,53,VALID,0.084032,
2006-04-11, 00:12:00,VALID,918.747,VALID,0,VALID,96.6356,VALID,-0.20377,VALID,21.2394,VALID,53,VALID,0,
2006-04-11, 00:13:00,VALID,918.739,VALID,0,VALID,96.2554,VALID,-0.186789,VALID,22.1192,VALID,53,VALID,0,
2006-04-11, 00:14:00,VALID,918.756,VALID,0,VALID,96.263,VALID,-0.135847,VALID,20.3201,VALID,53,VALID,0,
2006-04-11, 00:15:00,VALID,918.75,VALID,0,VALID,96.8937,VALID,-0.101885,VALID,21.2228,VALID,53,VALID,0,
2006-04-11, 00:16:00,VALID,918.761,VALID,0,VALID,97.2409,VALID,-0.118866,VALID,20.6227,VALID,53,VALID,0,
2006-04-11, 00:17:00,VALID,918.775,VALID,0,VALID,96.9967,VALID,-0.20377,VALID,21.5821,VALID,53,VALID,0,
2006-04-11, 00:18:00,VALID,918.775,VALID,0,VALID,96.8187,VALID,-0.169808,VALID,21.0074,VALID,53,VALID,0,
2006-04-11, 00:19:00,VALID,918.787,VALID,0.2,VALID,96.8581,VALID,-0.0679233,VALID,20.0642,VALID,53,VALID,0,
2006-04-11, 00:20:00,VALID,918.802,VALID,0,VALID,96.6992,VALID,0.0679233,VALID,20.1069,VALID,53,VALID,0,
2006-04-11, 00:21:00,VALID,918.82,VALID,0,VALID,96.881,VALID,0.0679233,VALID,21.2155,VALID,53,VALID,0.00835756,
2006-04-11, 00:22:00,VALID,918.828,VALID,0,VALID,97.1341,VALID,0.0679233,VALID,19.9769,VALID,53,VALID,0.144531,
2006-04-11, 00:23:00,VALID,918.817,VALID,0,VALID,96.9522,VALID,-0.118866,VALID,20.9749,VALID,45,VALID,0.359947,
2006-04-11, 00:24:00,VALID,918.807,VALID,0,VALID,97.0705,VALID,-0.101885,VALID,20.8495,VALID,40,VALID,0.439808,
2006-04-11, 00:25:00,VALID,918.797,VALID,0,VALID,97.0807,VALID,-0.118866,VALID,20.8292,VALID,36,VALID,0.309544,
2006-04-11, 00:26:00,VALID,918.804,VALID,0,VALID,97.1938,VALID,-0.101885,VALID,20.6712,VALID,36,VALID,0.193714,
2006-04-11, 00:27:00,VALID,918.79,VALID,0,VALID,97.3388,VALID,-0.186789,VALID,20.3074,VALID,36,VALID,0.253997,
2006-04-11, 00:28:00,VALID,918.79,VALID,0,VALID,97.4583,VALID,-0.220751,VALID,20.1524,VALID,35,VALID,0.268576,
2006-04-11, 00:29:00,VALID,918.778,VALID,0,VALID,97.7165,VALID,-0.20377,VALID,20.8589,VALID,34,VALID,0.310023,
2006-04-11, 00:30:00,VALID,918.786,VALID,0,VALID,97.6999,VALID,-0.186789,VALID,20.6983,VALID,34,VALID,0.337109,
2006-04-11, 00:31:00,VALID,918.787,VALID,0,VALID,97.85,VALID,-0.152827,VALID,20.466,VALID,32,VALID,0.508594,
2006-04-11, 00:32:00,VALID,918.784,VALID,0,VALID,97.7762,VALID,-0.152827,VALID,20.7783,VALID,22,VALID,0.603659,
2006-04-11, 00:33:00,VALID,918.796,VALID,0,VALID,97.6033,VALID,-0.118866,VALID,20.2301,VALID,22,VALID,0.814098,
2006-04-11, 00:34:00,VALID,918.79,VALID,0,VALID,97.663,VALID,-0.152827,VALID,19.5681,VALID,18,VALID,0.843178,
2006-04-11, 00:35:00,VALID,918.804,VALID,0,VALID,97.6096,VALID,-0.186789,VALID,19.7954,VALID,6,VALID,0.728743,
2006-04-11, 00:36:00,VALID,918.808,VALID,0,VALID,97.5944,VALID,-0.186789,VALID,20.0523,VALID,7,VALID,0.701265,
2006-04-11, 00:37:00,VALID,918.823,VALID,0,VALID,97.822,VALID,-0.169808,VALID,20.5533,VALID,9,VALID,0.393415,
2006-04-11, 00:38:00,VALID,918.831,VALID,0,VALID,97.4316,VALID,-0.169808,VALID,19.8093,VALID,9,VALID,0.495739,
2006-04-11, 00:39:00,VALID,918.837,VALID,0,VALID,97.4685,VALID,-0.169808,VALID,20.6934,VALID,9,VALID,0.448171,
2006-04-11, 00:40:00,VALID,918.853,VALID,0,VALID,97.232,VALID,-0.135847,VALID,19.4573,VALID,9,VALID,0.386632,
2006-04-11, 00:41:00,VALID,918.843,VALID,0,VALID,97.1798,VALID,-0.169808,VALID,20.58,VALID,9,VALID,0.363477,
2006-04-11, 00:42:00,VALID,918.835,VALID,0,VALID,97.1798,VALID,-0.20377,VALID,20.6159,VALID,9,VALID,0.0880208,
2006-04-11, 00:43:00,VALID,918.82,VALID,0,VALID,97.4418,VALID,-0.186789,VALID,19.7257,VALID,9,VALID,0.105755,
2006-04-11, 00:44:00,VALID,918.81,VALID,0,VALID,97.4151,VALID,-0.186789,VALID,20.565,VALID,9,VALID,0.250186,
2006-04-11, 00:45:00,VALID,918.802,VALID,0,VALID,97.4418,VALID,-0.186789,VALID,20.4235,VALID,9,VALID,0.0892857,
2006-04-11, 00:46:00,VALID,918.794,VALID,0,VALID,97.2803,VALID,-0.186789,VALID,21.122,VALID,9,VALID,0.139482,
2006-04-11, 00:47:00,VALID,918.79,VALID,0,VALID,97.0832,VALID,-0.152827,VALID,20.7932,VALID,9,VALID,0,
2006-04-11, 00:48:00,VALID,918.792,VALID,0,VALID,97.1023,VALID,-0.186789,VALID,20.1906,VALID,9,VALID,0,
2006-04-11, 00:49:00,VALID,918.792,VALID,0,VALID,97.0679,VALID,-0.186789,VALID,19.9409,VALID,9,VALID,0.0165551,
2006-04-11, 00:50:00,VALID,918.797,VALID,0,VALID,97.2587,VALID,-0.73459,VALID,21.2774,VALID,9,VALID,0.166921,
2006-04-11, 00:51:00,VALID,918.801,VALID,0,VALID,97.3388,VALID,-0.850314,VALID,20.1154,VALID,9,VALID,0.25191,
2006-04-11, 00:52:00,VALID,918.817,VALID,0,VALID,97.3986,VALID,-0.0849042,VALID,19.6975,VALID,9,VALID,0.0925347,
2006-04-11, 00:53:00,VALID,918.831,VALID,0,VALID,97.8004,VALID,-0.101885,VALID,20.5712,VALID,9,VALID,0,
2006-04-11, 00:54:00,VALID,918.856,VALID,0,VALID,97.5944,VALID,-0.186789,VALID,20.1794,VALID,9,VALID,0.151414,
2006-04-11, 00:55:00,VALID,918.876,VALID,0,VALID,97.0921,VALID,-0.20377,VALID,20.8968,VALID,9,VALID,0.371466,
2006-04-11, 00:56:00,VALID,918.909,VALID,0,VALID,96.8823,VALID,-0.186789,VALID,20.7666,VALID,12,VALID,0.483487,
2006-04-11, 00:57:00,VALID,918.934,VALID,0,VALID,96.881,VALID,-0.169808,VALID,20.284,VALID,12,VALID,0.378811,
2006-04-11, 00:58:00,VALID,918.978,VALID,0,VALID,96.8632,VALID,-0.169808,VALID,20.2737,VALID,12,VALID,0.248698,
2006-04-11, 00:59:00,VALID,919.014,VALID,0,VALID,96.7081,VALID,-0.186789,VALID,20.083,VALID,12,VALID,0.255035,
2006-04-11, 01:00:00,VALID,919.044,VALID,0,VALID,96.8174,VALID,-0.152827,VALID,19.6027,VALID,12,VALID,0.253634,
2006-04-11, 01:01:00,VALID,919.065,VALID,0,VALID,96.9738,VALID,-0.186789,VALID,20.5917,VALID,12,VALID,0.0470486,
2006-04-11, 01:02:00,VALID,919.094,VALID,0,VALID,96.9014,VALID,-0.20377,VALID,20.3006,VALID,12,VALID,0,
2006-04-11, 01:03:00,VALID,919.099,VALID,0,VALID,96.9649,VALID,-0.20377,VALID,19.7462,VALID,12,VALID,0,
2006-04-11, 01:04:00,VALID,919.094,VALID,0,VALID,97.0031,VALID,-0.186789,VALID,20.5189,VALID,17,VALID,0.367188,
2006-04-11, 01:05:00,VALID,919.082,VALID,0,VALID,97.0603,VALID,-0.186789,VALID,20.5213,VALID,26,VALID,0.504542,
2006-04-11, 01:06:00,VALID,919.057,VALID,0,VALID,97.1341,VALID,-0.20377,VALID,20.2756,VALID,44,VALID,0.669497,
2006-04-11, 01:07:00,VALID,919.029,VALID,0,VALID,97.2688,VALID,-0.169808,VALID,21.0817,VALID,51,VALID,0.643293,
2006-04-11, 01:08:00,VALID,919.007,VALID,0,VALID,97.3477,VALID,-0.186789,VALID,20.158,VALID,51,VALID,0.487723,
2006-04-11, 01:09:00,VALID,918.975,VALID,0,VALID,97.0717,VALID,-0.169808,VALID,19.839,VALID,51,VALID,0.423874,
2006-04-11, 01:10:00,VALID,918.97,VALID,0,VALID,97.0349,VALID,-0.0679233,VALID,20.2451,VALID,51,VALID,0.231213,
2006-04-11, 01:11:00,VALID,918.971,VALID,0,VALID,97.0044,VALID,-0.0509425,VALID,19.4295,VALID,51,VALID,0,
2006-04-11, 01:12:00,VALID,918.945,VALID,0,VALID,96.9955,VALID,-0.0679233,VALID,20.0363,VALID,51,VALID,0.00111607,
2006-04-11, 01:13:00,VALID,918.932,VALID,0,VALID,96.8225,VALID,-0.169808,VALID,19.9951,VALID,51,VALID,0,
2006-04-11, 01:14:00,VALID,918.935,VALID,0,VALID,96.6178,VALID,-0.186789,VALID,21.0066,VALID,51,VALID,0.132227,
2006-04-11, 01:15:00,VALID,918.937,VALID,0,VALID,96.4576,VALID,-0.135847,VALID,19.9584,VALID,51,VALID,0.375363,
2006-04-11, 01:16:00,VALID,918.962,VALID,0,VALID,96.3393,VALID,-0.169808,VALID,20.5276,VALID,51,VALID,0.470385,
2006-04-11, 01:17:00,VALID,919,VALID,0,VALID,96.2719,VALID,-0.20377,VALID,20.3003,VALID,56,VALID,0.542878,
2006-04-11, 01:18:00,VALID,919.018,VALID,0,VALID,96.1498,VALID,-0.169808,VALID,21.0363,VALID,57,VALID,0.608994,
2006-04-11, 01:19:00,VALID,919.044,VALID,0,VALID,95.9655,VALID,-0.186789,VALID,20.2394,VALID,58,VALID,0.629416,
2006-04-11, 01:20:00,VALID,919.072,VALID,0,VALID,95.8014,VALID,-0.319494,VALID,20.6713,VALID,85,VALID,0.714749,
2006-04-11, 01:21:00,VALID,919.08,VALID,0,VALID,95.9972,VALID,-0.867295,VALID,19.4647,VALID,93,VALID,0.689918,
2006-04-11, 01:22:00,VALID,919.096,VALID,0,VALID,96.3342,VALID,-0.20377,VALID,20.8364,VALID,93,VALID,0.668945,
2006-04-11, 01:23:00,VALID,919.103,VALID,0,VALID,96.5364,VALID,-0.186789,VALID,20.0058,VALID,93,VALID,0.719351,
2006-04-11, 01:24:00,VALID,919.11,VALID,0,VALID,96.7704,VALID,-0.20377,VALID,19.9318,VALID,93,VALID,0.827762,
2006-04-11, 01:25:00,VALID,919.115,VALID,0,VALID,96.7793,VALID,-0.186789,VALID,19.9922,VALID,93,VALID,0.770833,
2006-04-11, 01:26:00,VALID,919.13,VALID,0,VALID,96.9052,VALID,-0.101885,VALID,20.4259,VALID,93,VALID,0.546689,
2006-04-11, 01:27:00,VALID,919.139,VALID,0,VALID,97.1786,VALID,-0.101885,VALID,20.2801,VALID,93,VALID,0.452592,
2006-04-11, 01:28:00,VALID,919.126,VALID,0,VALID,97.2154,VALID,-0.0849042,VALID,20.8817,VALID,90,VALID,0.43801,
2006-04-11, 01:29:00,VALID,919.115,VALID,0,VALID,97.1849,VALID,-0.118866,VALID,21.1403,VALID,65,VALID,0.597317,
2006-04-11, 01:30:00,VALID,919.099,VALID,0,VALID,97.143,VALID,-0.20377,VALID,20.2357,VALID,48,VALID,0.641513,
2006-04-11, 01:31:00,VALID,919.077,VALID,0,VALID,96.9459,VALID,-0.186789,VALID,19.8738,VALID,45,VALID,0.63418,
2006-04-11, 01:32:00,VALID,919.07,VALID,0,VALID,97.1811,VALID,-0.101885,VALID,20.1361,VALID,37,VALID,0.632622,
2006-04-11, 01:33:00,VALID,919.047,VALID,0,VALID,97.2561,VALID,-0.101885,VALID,20.5236,VALID,27,VALID,0.800509,
2006-04-11, 01:34:00,VALID,919.028,VALID,0,VALID,97.3362,VALID,-0.101885,VALID,19.6147,VALID,19,VALID,0.711523,
2006-04-11, 01:35:00,VALID,919.01,VALID,0,VALID,97.5639,VALID,-0.101885,VALID,20.4249,VALID,19,VALID,0.505907,
2006-04-11, 01:36:00,VALID,918.999,VALID,0,VALID,97.8042,VALID,-0.118866,VALID,20.7292,VALID,19,VALID,0.309642,
2006-04-11, 01:37:00,VALID,919.001,VALID,0,VALID,97.8767,VALID,-0.20377,VALID,20.403,VALID,19,VALID,0.184837,
2006-04-11, 01:38:00,VALID,918.996,VALID,0,VALID,97.8334,VALID,-0.186789,VALID,19.4142,VALID,19,VALID,0,
2006-04-11, 01:39:00,VALID,918.976,VALID,0,VALID,97.8919,VALID,-0.101885,VALID,19.8307,VALID,19,VALID,0.00117188,
2006-04-11, 01:40:00,VALID,918.962,VALID,0,VALID,97.7025,VALID,-0.20377,VALID,19.9896,VALID,19,VALID,0.00240385,
2006-04-11, 01:41:00,VALID,918.946,VALID,0,VALID,97.4736,VALID,-0.169808,VALID,20.5086,VALID,19,VALID,0.00363372,
2006-04-11, 01:42:00,VALID,918.933,VALID,0,VALID,97.4075,VALID,-0.118866,VALID,19.3711,VALID,18,VALID,0.403525,
2006-04-11, 01:43:00,VALID,918.921,VALID,0,VALID,96.8619,VALID,-0.169808,VALID,20.2461,VALID,16,VALID,0.84375,
2006-04-11, 01:44:00,VALID,918.911,VALID,0,VALID,96.5936,VALID,-0.118866,VALID,20.5094,VALID,17,VALID,0.653299,
2006-04-11, 01:45:00,VALID,918.898,VALID,0,VALID,96.3813,VALID,-0.186789,VALID,19.8613,VALID,6,VALID,0.540661,
2006-04-11, 01:46:00,VALID,918.875,VALID,0,VALID,96.1765,VALID,-0.0849042,VALID,20.0079,VALID,356,VALID,0.655078,
2006-04-11, 01:47:00,VALID,918.862,VALID,0,VALID,95.8815,VALID,-0.118866,VALID,19.5659,VALID,347,VALID,0.74566,
2006-04-11, 01:48:00,VALID,918.828,VALID,0,VALID,95.9426,VALID,-0.186789,VALID,19.8692,VALID,2,VALID,0.695126,
2006-04-11, 01:49:00,VALID,918.831,VALID,0,VALID,96.0405,VALID,-0.101885,VALID,19.7745,VALID,6,VALID,0.443598,
2006-04-11, 01:50:00,VALID,918.834,VALID,0,VALID,96.0748,VALID,-0.101885,VALID,20.2147,VALID,6,VALID,0.423611,
2006-04-11, 01:51:00,VALID,918.827,VALID,0,VALID,95.9006,VALID,-0.567923,VALID,20.0736,VALID,340,VALID,0.228051,
2006-04-11, 01:52:00,VALID,918.833,VALID,0,VALID,96.1753,VALID,-0.220751,VALID,21.0962,VALID,340,VALID,0.0438988,
2006-04-11, 01:53:00,VALID,918.839,VALID,0,VALID,96.3431,VALID,-0.186789,VALID,19.6787,VALID,341,VALID,0.384943,
2006-04-11, 01:54:00,VALID,918.839,VALID,0,VALID,96.3927,VALID,-0.186789,VALID,19.9044,VALID,6,VALID,0.711523,
2006-04-11, 01:55:00,VALID,918.83,VALID,0,VALID,96.4156,VALID,-0.186789,VALID,20.4222,VALID,10,VALID,0.613021,
2006-04-11, 01:56:00,VALID,918.821,VALID,0,VALID,96.4448,VALID,-0.101885,VALID,19.5918,VALID,8,VALID,0.551683,
2006-04-11, 01:57:00,VALID,918.808,VALID,0,VALID,96.408,VALID,-0.101885,VALID,19.1442,VALID,8,VALID,0.338281,
2006-04-11, 01:58:00,VALID,918.803,VALID,0,VALID,96.6636,VALID,-0.0849042,VALID,20.2558,VALID,8,VALID,0.352865,
2006-04-11, 01:59:00,VALID,918.799,VALID,0,VALID,96.4715,VALID,-0.101885,VALID,20.9652,VALID,8,VALID,0.353924,
2006-04-11, 02:00:00,VALID,918.786,VALID,0,VALID,96.7182,VALID,-0.135847,VALID,20.8148,VALID,7,VALID,0.30506,
2006-04-11, 02:01:00,VALID,918.779,VALID,0,VALID,97.1277,VALID,-0.101885,VALID,20.8738,VALID,3,VALID,0.313086,
2006-04-11, 02:02:00,VALID,918.774,VALID,0,VALID,97.499,VALID,-0.101885,VALID,21.2315,VALID,3,VALID,0.116406,
2006-04-11, 02:03:00,VALID,918.771,VALID,0,VALID,97.7254,VALID,-0.20377,VALID,20.1912,VALID,3,VALID,0,
2006-04-11, 02:04:00,VALID,918.764,VALID,0,VALID,97.5931,VALID,-0.186789,VALID,20.0058,VALID,3,VALID,0.111151,
2006-04-11, 02:05:00,VALID,918.753,VALID,0,VALID,97.5346,VALID,-0.101885,VALID,20.2053,VALID,3,VALID,0,
2006-04-11, 02:06:00,VALID,918.741,VALID,0,VALID,97.2867,VALID,-0.118866,VALID,19.2375,VALID,2,VALID,0.232088,
2006-04-11, 02:07:00,VALID,918.723,VALID,0,VALID,97.1519,VALID,-0.101885,VALID,20.2575,VALID,6,VALID,0.583576,
2006-04-11, 02:08:00,VALID,918.687,VALID,0,VALID,97.279,VALID,-0.101885,VALID,20.7698,VALID,4,VALID,0.514172,
2006-04-11, 02:09:00,VALID,918.666,VALID,0,VALID,97.2104,VALID,-0.135847,VALID,20.2964,VALID,4,VALID,0.490039,
2006-04-11, 02:10:00,VALID,918.651,VALID,0,VALID,97.087,VALID,-0.220751,VALID,19.0383,VALID,4,VALID,0.447218,
2006-04-11, 02:11:00,VALID,918.635,VALID,0,VALID,97.2256,VALID,-0.220751,VALID,20.494,VALID,356,VALID,0.713914,
2006-04-11, 02:12:00,VALID,918.607,VALID,0,VALID,97.4125,VALID,-0.220751,VALID,19.703,VALID,353,VALID,0.691406,
2006-04-11, 02:13:00,VALID,918.599,VALID,0,VALID,97.2994,VALID,-0.20377,VALID,19.713,VALID,336,VALID,0.897166,
2006-04-11, 02:14:00,VALID,918.58,VALID,0,VALID,96.8963,VALID,-0.20377,VALID,19.1874,VALID,349,VALID,0.770008,
2006-04-11, 02:15:00,VALID,918.587,VALID,0,VALID,96.8988,VALID,-0.186789,VALID,20.3429,VALID,340,VALID,0.612305,
2006-04-11, 02:16:00,VALID,918.587,VALID,0,VALID,96.6979,VALID,-0.101885,VALID,20.3442,VALID,340,VALID,0.972222,
2006-04-11, 02:17:00,VALID,918.581,VALID,0,VALID,96.5695,VALID,-0.118866,VALID,18.8176,VALID,354,VALID,1.01835,
2006-04-11, 02:18:00,VALID,918.586,VALID,0,VALID,96.7767,VALID,-0.118866,VALID,20.2082,VALID,353,VALID,0.838021,
2006-04-11, 02:19:00,VALID,918.577,VALID,0,VALID,96.8225,VALID,-0.20377,VALID,20.0455,VALID,318,VALID,0.570313,
2006-04-11, 02:20:00,VALID,918.586,VALID,0,VALID,97.1926,VALID,-0.20377,VALID,19.8991,VALID,333,VALID,0.334695,
2006-04-11, 02:21:00,VALID,918.56,VALID,0,VALID,97.1341,VALID,-0.387417,VALID,19.3237,VALID,319,VALID,0.651526,
2006-04-11, 02:22:00,VALID,918.546,VALID,0,VALID,96.8441,VALID,-0.850314,VALID,19.7416,VALID,341,VALID,0.731326,
2006-04-11, 02:23:00,VALID,918.552,VALID,0,VALID,96.6979,VALID,-0.101885,VALID,18.3566,VALID,348,VALID,0.887649,
2006-04-11, 02:24:00,VALID,918.542,VALID,0,VALID,96.9179,VALID,-0.118866,VALID,18.6567,VALID,344,VALID,0.34375,
2006-04-11, 02:25:00,VALID,918.543,VALID,0,VALID,97.0972,VALID,-0.186789,VALID,18.4578,VALID,349,VALID,0.402344,
2006-04-11, 02:26:00,VALID,918.553,VALID,0,VALID,97.2943,VALID,-0.20377,VALID,20.2236,VALID,340,VALID,0.530664,
2006-04-11, 02:27:00,VALID,918.535,VALID,0,VALID,97.822,VALID,-0.186789,VALID,19.9046,VALID,6,VALID,0.647569,
2006-04-11, 02:28:00,VALID,918.518,VALID,0,VALID,97.9987,VALID,-0.169808,VALID,19.8021,VALID,357,VALID,0.865007,
2006-04-11, 02:29:00,VALID,918.509,VALID,0,VALID,98.0433,VALID,-0.20377,VALID,20.0716,VALID,328,VALID,0.627362,
2006-04-11, 02:30:00,VALID,918.499,VALID,0,VALID,98.3484,VALID,-0.186789,VALID,19.6938,VALID,1,VALID,0.695668,
2006-04-11, 02:31:00,VALID,918.498,VALID,0,VALID,98.5684,VALID,-0.20377,VALID,19.405,VALID,7,VALID,0.587941,
2006-04-11, 02:32:00,VALID,918.499,VALID,0,VALID,98.6752,VALID,-0.20377,VALID,19.3655,VALID,7,VALID,0.567645,
2006-04-11, 02:33:00,VALID,918.5,VALID,0,VALID,98.5672,VALID,-0.20377,VALID,20.1328,VALID,7,VALID,0.735263,
2006-04-11, 02:34:00,VALID,918.498,VALID,0,VALID,98.2963,VALID,-0.0849042,VALID,20.0622,VALID,10,VALID,0.785792,
2006-04-11, 02:35:00,VALID,918.481,VALID,0,VALID,97.8017,VALID,-0.186789,VALID,19.457,VALID,15,VALID,1.15057,
2006-04-11, 02:36:00,VALID,918.463,VALID,0,VALID,97.3591,VALID,-0.186789,VALID,19.7549,VALID,349,VALID,1.0625,
2006-04-11, 02:37:00,VALID,918.433,VALID,0,VALID,97.129,VALID,-0.220751,VALID,19.5335,VALID,346,VALID,1.05124,
2006-04-11, 02:38:00,VALID,918.409,VALID,0,VALID,97.1773,VALID,-0.220751,VALID,18.7254,VALID,3,VALID,0.626715,
2006-04-11, 02:39:00,VALID,918.394,VALID,0,VALID,96.8746,VALID,-0.186789,VALID,19.5841,VALID,313,VALID,0.661577,
2006-04-11, 02:40:00,VALID,918.382,VALID,0,VALID,96.8975,VALID,-0.186789,VALID,20.0517,VALID,310,VALID,0.404687,
2006-04-11, 02:41:00,VALID,918.365,VALID,0,VALID,97.2167,VALID,-0.118866,VALID,19.7502,VALID,307,VALID,0.43006,
2006-04-11, 02:42:00,VALID,918.345,VALID,0,VALID,97.3579,VALID,-0.101885,VALID,20.2285,VALID,307,VALID,0.387835,
2006-04-11, 02:43:00,VALID,918.342,VALID,0,VALID,97.3909,VALID,-0.101885,VALID,20.014,VALID,308,VALID,0.606707,
2006-04-11, 02:44:00,VALID,918.327,VALID,0,VALID,97.6859,VALID,-0.186789,VALID,20.0878,VALID,299,VALID,0.627544,
2006-04-11, 02:45:00,VALID,918.304,VALID,0,VALID,97.9212,VALID,-0.20377,VALID,19.9039,VALID,350,VALID,0.596168,
2006-04-11, 02:46:00,VALID,918.301,VALID,0,VALID,97.9695,VALID,-0.20377,VALID,19.0813,VALID,347,VALID,0.521439,
2006-04-11, 02:47:00,VALID,918.291,VALID,0,VALID,97.953,VALID,-0.20377,VALID,20.6752,VALID,339,VALID,0.400915,
2006-04-11, 02:48:00,VALID,918.266,VALID,0,VALID,97.677,VALID,-0.20377,VALID,20.2425,VALID,336,VALID,0.420945,
2006-04-11, 02:49:00,VALID,918.257,VALID,0,VALID,97.5893,VALID,-0.135847,VALID,19.8282,VALID,316,VALID,0.685865,
2006-04-11, 02:50:00,VALID,918.25,VALID,0,VALID,97.7571,VALID,-0.135847,VALID,20.289,VALID,313,VALID,0.633398,
2006-04-11, 02:51:00,VALID,918.248,VALID,0,VALID,97.8614,VALID,-0.135847,VALID,20.3055,VALID,345,VALID,0.718178,
2006-04-11, 02:52:00,VALID,918.242,VALID,0,VALID,97.5283,VALID,-0.135847,VALID,20.1745,VALID,342,VALID,0.735647,
2006-04-11, 02:53:00,VALID,918.243,VALID,0,VALID,97.5168,VALID,-0.118866,VALID,20.022,VALID,315,VALID,0.471037,
2006-04-11, 02:54:00,VALID,918.251,VALID,0,VALID,97.5448,VALID,-0.101885,VALID,19.4008,VALID,308,VALID,0.185417,
2006-04-11, 02:55:00,VALID,918.241,VALID,0,VALID,97.5982,VALID,-0.101885,VALID,19.3367,VALID,308,VALID,0.0640244,
2006-04-11, 02:56:00,VALID,918.254,VALID,0,VALID,97.5092,VALID,-0.101885,VALID,19.3439,VALID,308,VALID,0.0638021,
2006-04-11, 02:57:00,VALID,918.259,VALID,0,VALID,97.41,VALID,-0.101885,VALID,19.915,VALID,308,VALID,0.0789742,
2006-04-11, 02:58:00,VALID,918.26,VALID,0,VALID,97.4494,VALID,-0.101885,VALID,19.2384,VALID,308,VALID,0.0730299,
2006-04-11, 02:59:00,VALID,918.271,VALID,0,VALID,97.4723,VALID,-0.118866,VALID,19.5708,VALID,308,VALID,0.0339753,
2006-04-11, 03:00:00,VALID,918.27,VALID,0,VALID,97.4329,VALID,-0.186789,VALID,20.2662,VALID,308,VALID,0,
2006-04-11, 03:01:00,VALID,918.262,VALID,0,VALID,97.1964,VALID,-0.186789,VALID,19.3139,VALID,308,VALID,0,
2006-04-11, 03:02:00,VALID,918.264,VALID,0,VALID,96.9675,VALID,-0.186789,VALID,20.2323,VALID,308,VALID,0.00118886,
2006-04-11, 03:03:00,VALID,918.272,VALID,0,VALID,96.8365,VALID,-0.20377,VALID,20.5908,VALID,327,VALID,0.269985,
2006-04-11, 03:04:00,VALID,918.273,VALID,0,VALID,96.5746,VALID,-0.20377,VALID,20.4059,VALID,349,VALID,0.410442,
2006-04-11, 03:05:00,VALID,918.268,VALID,0,VALID,96.1638,VALID,-0.169808,VALID,19.9948,VALID,358,VALID,0.176599,
2006-04-11, 03:06:00,VALID,918.27,VALID,0,VALID,95.9629,VALID,-0.20377,VALID,20.422,VALID,358,VALID,0.135901,
2006-04-11, 03:07:00,VALID,918.241,VALID,0,VALID,95.8752,VALID,-0.186789,VALID,19.5047,VALID,358,VALID,0.0187872,
2006-04-11, 03:08:00,VALID,918.228,VALID,0,VALID,95.6437,VALID,-0.186789,VALID,19.3537,VALID,358,VALID,0.0419497,
2006-04-11, 03:09:00,VALID,918.205,VALID,0,VALID,95.7086,VALID,-0.20377,VALID,20.7072,VALID,358,VALID,0.160511,
2006-04-11, 03:10:00,VALID,918.195,VALID,0,VALID,95.6946,VALID,-0.152827,VALID,20.3681,VALID,358,VALID,0.26669,
2006-04-11, 03:11:00,VALID,918.171,VALID,0,VALID,95.5941,VALID,-0.169808,VALID,19.7234,VALID,358,VALID,0.398065,
2006-04-11, 03:12:00,VALID,918.171,VALID,0,VALID,95.8141,VALID,-0.169808,VALID,20.3928,VALID,358,VALID,0.23402,
2006-04-11, 03:13:00,VALID,918.156,VALID,0,VALID,95.9184,VALID,-0.20377,VALID,20.5022,VALID,358,VALID,0.0789931,
2006-04-11, 03:14:00,VALID,918.152,VALID,0,VALID,95.8141,VALID,-0.186789,VALID,20.1499,VALID,358,VALID,0.382813,
2006-04-11, 03:15:00,VALID,918.148,VALID,0,VALID,95.7226,VALID,-0.20377,VALID,19.6126,VALID,358,VALID,0.353016,
2006-04-11, 03:16:00,VALID,918.128,VALID,0,VALID,95.7785,VALID,-0.186789,VALID,19.8361,VALID,358,VALID,0.00745739,
2006-04-11, 03:17:00,VALID,918.132,VALID,0,VALID,95.9248,VALID,-0.186789,VALID,20.6734,VALID,358,VALID,0,
2006-04-11, 03:18:00,VALID,918.107,VALID,0,VALID,95.6984,VALID,-0.169808,VALID,19.1057,VALID,358,VALID,0.138867,
2006-04-11, 03:19:00,VALID,918.092,VALID,0,VALID,95.7862,VALID,-0.20377,VALID,19.9463,VALID,358,VALID,0.154102,
2006-04-11, 03:20:00,VALID,918.064,VALID,0,VALID,96.1854,VALID,-0.169808,VALID,20.0655,VALID,358,VALID,0.218006,
2006-04-11, 03:21:00,VALID,918.057,VALID,0,VALID,96.5746,VALID,-0.20377,VALID,19.0444,VALID,358,VALID,0.0523256,
2006-04-11, 03:22:00,VALID,918.056,VALID,0,VALID,96.6941,VALID,-0.186789,VALID,18.6541,VALID,358,VALID,0,
2006-04-11, 03:23:00,VALID,918.033,VALID,0,VALID,96.9955,VALID,-0.20377,VALID,19.4023,VALID,358,VALID,0,
2006-04-11, 03:24:00,VALID,918.026,VALID,0,VALID,97.2091,VALID,-0.20377,VALID,19.91,VALID,358,VALID,0,
2006-04-11, 03:25:00,VALID,918.017,VALID,0,VALID,97.4914,VALID,-0.186789,VALID,18.8846,VALID,358,VALID,0,
2006-04-11, 03:26:00,VALID,918.012,VALID,0,VALID,97.5562,VALID,-0.186789,VALID,20.1148,VALID,358,VALID,0.00837054,
2006-04-11, 03:27:00,VALID,918.013,VALID,0,VALID,97.279,VALID,-0.186789,VALID,19.2628,VALID,358,VALID,0,
2006-04-11, 03:28:00,VALID,918.008,VALID,0,VALID,97.3935,VALID,-0.20377,VALID,19.6511,VALID,358,VALID,0,
2006-04-11, 03:29:00,VALID,918.006,VALID,0,VALID,97.4901,VALID,-0.20377,VALID,19.6498,VALID,358,VALID,0,
2006-04-11, 03:30:00,VALID,917.998,VALID,0,VALID,97.6796,VALID,-0.169808,VALID,19.0998,VALID,358,VALID,0,
2006-04-11, 03:31:00,VALID,918.001,VALID,0,VALID,97.8258,VALID,-0.20377,VALID,19.2891,VALID,358,VALID,0,
2006-04-11, 03:32:00,VALID,917.999,VALID,0,VALID,97.836,VALID,-0.186789,VALID,18.7751,VALID,358,VALID,0,
2006-04-11, 03:33:00,VALID,917.995,VALID,0,VALID,97.8462,VALID,-0.20377,VALID,19.5165,VALID,358,VALID,0,
2006-04-11, 03:34:00,VALID,917.997,VALID,0,VALID,97.8805,VALID,-0.20377,VALID,18.7336,VALID,358,VALID,0,